Wind_Speed
1 4 5 5 2 6 7 10 10 5 2 6 5 2 10 20 11 16 22 22 22 23 19 18 21 19 20 19 19 21 19 17 17 18 18 16 15 11 10 9 10 8 7 8
4 3 3 4 5 3 6 7 6 4 3 3 6 7 9 11 16 13 20 25 25 20 18 20 22 21 20 21 20 21 20 17 16 16 19 18 16 13 11 10 10 9 7 7
6 2 7 4 7 6 5 4 8 5 7 6 0 4 5 12 15 13 12 25 27 26 24 21 25 24 22 23 23 23 22 19 16 15 17 19 16 14 14 12 11 9 8 6
2 3 5 5 7 7 7 6 9 10 4 3 2 3 4 9 15 18 18 20 28 28 25 21 23 26 26 24 23 23 24 21 18 17 19 18 16 15 14 12 12 12 10 8
1 4 5 5 6 10 1 10 9 6 5 4 2 2 1 7 12 18 26 19 28 29 26 27 26 27 26 25 24 24 24 25 22 19 19 16 16 14 13 13 11 9 9 9
4 1 3 1 5 9 14 13 8 4 2 2 2 1 5 7 18 19 25 26 28 29 27 26 22 23 26 27 26 25 25 25 25 21 19 17 18 17 16 15 13 11 10 11
2 1 1 5 11 10 6 11 2 2 2 1 4 4 10 8 11 16 27 35 27 27 26 24 25 29 30 29 28 27 26 25 26 25 22 20 17 18 18 16 16 13 12 13
2 4 9 8 3 6 13 7 4 4 4 3 4 5 3 5 9 17 23 40 24 25 26 26 29 32 33 31 29 28 29 26 26 27 25 24 19 19 17 15 17 16 12 12
1 1 2 6 5 10 7 8 2 3 2 2 4 4 3 3 14 10 14 29 30 26 29 30 27 30 33 33 31 29 28 28 27 27 24 25 23 22 20 18 17 16 15 14
1 3 3 3 6 6 7 10 4 3 4 4 2 4 5 9 11 7 13 24 33 30 29 29 28 32 37 35 32 30 28 26 27 25 25 23 22 22 20 21 20 17 17 19
1 3 0 4 2 6 6 5 3 3 2 2 2 4 2 8 12 6 10 24 28 32 31 33 31 34 39 36 33 30 28 27 27 27 25 23 21 21 20 21 19 17 16 17
2 1 4 2 2 2 2 2 6 7 6 1 2 2 4 5 6 2 10 21 25 27 33 38 35 33 35 39 36 32 28 25 24 25 24 23 21 21 21 22 20 19 17 17
2 0 3 3 4 4 1 2 2 1 1 6 5 3 3 6 5 7 5 2 10 22 30 33 31 30 36 40 40 35 30 26 23 22 22 22 22 22 20 20 20 19 18 17
3 1 3 6 4 4 3 1 2 3 3 4 6 6 3 2 5 8 8 8 4 11 23 30 33 39 36 38 41 37 33 29 27 25 23 21 21 22 22 20 20 19 17 17
1 4 3 6 8 6 5 3 2 4 2 4 1 5 2 2 5 10 10 12 5 6 17 26 27 36 40 37 39 39 35 31 29 28 27 25 21 21 22 22 22 20 19 18
2 1 1 5 4 5 5 4 5 2 3 4 4 6 0 2 3 6 9 12 6 2 10 19 27 31 33 37 35 36 34 32 31 29 28 27 25 22 22 24 23 22 20 20
0 1 2 4 2 3 7 7 6 3 3 3 5 0 3 2 3 5 7 8 7 1 5 13 21 24 28 27 28 30 34 30 31 30 31 30 29 26 24 24 24 22 21 20
2 2 1 4 2 7 2 1 3 7 3 7 5 6 5 4 6 6 6 4 5 6 5 6 10 16 22 23 23 26 28 30 29 28 29 27 29 29 26 24 24 21 19 19
0 2 2 3 4 4 3 6 6 6 3 7 5 7 10 7 3 3 5 5 3 6 6 6 8 8 8 12 15 18 18 21 21 19 20 22 27 31 26 26 20 19 20 21
4 1 4 2 4 5 1 2 2 4 6 16 12 11 12 8 3 2 2 4 4 4 8 10 9 8 7 7 8 10 10 11 13 13 10 16 21 24 26 22 25 19 20 21
2 1 6 6 6 5 2 2 1 6 2 5 12 10 12 4 1 6 5 6 5 6 6 8 9 11 13 13 13 9 8 8 3 3 5 10 16 11 19 21 20 19 15 12
3 3 2 1 4 8 3 4 5 4 5 3 6 7 9 12 9 9 9 9 9 9 7 8 9 8 8 7 6 7 7 7 2 5 5 4 8 8 4 1 5 11 12 8
3 3 0 5 2 1 5 10 6 2 4 4 7 9 15 14 14 11 12 12 12 12 10 9 8 9 9 8 10 10 8 12 10 7 6 4 6 6 7 5 2 1 1 1
6 5 3 2 2 9 7 7 10 5 7 10 11 14 12 13 13 13 13 14 14 13 13 12 12 12 12 9 7 6 7 10 5 4 2 6 4 4 11 7 6 5 3 5
1 10 5 5 9 6 8 8 4 7 13 17 16 15 16 16 14 13 12 14 17 16 14 13 12 13 14 11 11 11 8 5 3 6 6 5 6 5 7 7 4 4 6 6
10 6 5 4 8 3 9 10 11 11 13 13 18 17 15 16 17 16 14 13 14 14 13 12 13 12 12 11 11 12 11 10 9 10 10 9 7 6 6 6 6 5 5 5
Wind_Direction
91 199 184 157 127 110 106 112 110 111 131 73 5 286 211 211 196 221 203 200 205 209 208 207 207 204 201 197 193 191 183 184 187 185 178 178 174 174 168 163 163 157 154 157
155 186 166 159 147 144 128 120 109 131 152 112 39 305 207 196 196 212 215 209 213 208 206 207 207 208 207 206 200 197 192 189 185 185 189 187 183 182 179 173 173 175 171 177
175 116 160 167 167 190 191 212 176 139 145 95 64 320 208 200 208 237 249 219 217 213 210 207 209 210 211 209 206 200 196 189 185 184 185 185 184 188 192 191 189 189 181 181
170 143 172 189 205 203 216 200 169 135 137 46 349 299 235 176 203 227 253 223 219 218 219 212 209 209 213 212 210 206 202 199 191 189 194 193 192 190 186 184 183 181 188 191
149 184 178 203 222 201 154 143 145 136 96 135 62 290 207 189 208 219 233 238 221 219 214 212 212 210 211 213 212 210 205 206 206 202 203 204 203 195 187 180 178 181 191 200
264 229 241 324 48 176 135 111 92 74 56 129 134 26 264 189 216 218 225 227 223 218 214 215 213 209 212 214 213 212 208 210 211 210 206 207 213 206 199 199 195 201 207 209
305 148 99 146 104 135 180 179 145 161 197 272 149 151 249 218 212 207 206 218 217 214 211 207 206 210 214 214 212 212 212 212 210 210 211 206 209 214 215 217 216 217 222 215
335 185 176 175 226 189 188 220 184 212 185 184 179 240 311 355 217 214 214 205 206 210 209 206 208 212 215 216 214 212 214 216 213 213 216 213 218 219 222 225 222 216 224 221
305 229 185 206 159 161 177 218 109 114 155 220 200 227 312 263 251 202 201 195 200 209 209 211 210 210 215 217 217 214 214 216 218 221 222 224 227 224 223 222 221 232 233 226
137 287 173 132 165 185 231 157 178 222 203 228 224 269 266 182 256 166 198 202 205 210 211 213 212 215 218 220 219 218 218 219 219 223 226 230 233 227 227 226 229 237 242 237
68 283 165 186 216 194 164 187 215 258 250 248 168 238 340 282 308 239 198 196 215 213 211 216 215 220 218 221 219 218 220 220 221 222 226 231 231 226 228 227 233 241 242 232
37 247 274 337 354 273 305 235 226 240 201 227 319 265 330 318 334 336 170 202 210 215 212 213 219 217 217 220 221 218 219 221 222 221 224 228 231 232 233 226 234 231 238 245
170 94 271 181 159 157 180 98 162 184 300 215 233 254 321 15 23 46 24 294 235 218 210 205 207 212 220 219 221 219 217 217 217 218 220 222 226 230 236 237 229 236 243 235
169 172 274 285 357 337 229 194 113 192 213 212 221 268 211 29 13 16 9 342 291 208 201 200 203 216 226 224 219 218 217 219 217 219 221 221 222 225 230 234 231 234 236 237
328 277 244 279 269 251 274 271 251 208 164 240 179 266 265 301 347 348 352 347 331 189 196 200 202 211 221 225 220 220 220 220 223 222 223 226 225 226 228 228 228 231 235 239
38 311 268 277 283 206 243 276 272 247 193 206 263 270 161 47 1 349 354 352 342 214 201 213 216 216 216 224 221 220 224 225 228 230 233 233 234 230 225 228 229 230 237 244
242 200 269 279 1 220 250 225 227 277 232 260 213 265 149 120 75 11 357 359 7 71 181 211 210 217 223 227 225 220 231 234 237 237 238 238 239 236 231 228 227 232 241 244
164 160 197 284 261 240 51 196 259 247 229 240 255 152 158 127 95 58 21 5 32 72 129 172 208 211 212 220 221 224 226 232 238 241 244 246 240 234 229 227 227 232 237 238
301 185 225 253 239 312 236 201 201 222 215 199 198 150 149 134 122 53 25 25 42 68 95 144 170 184 217 227 227 235 240 241 245 242 238 241 242 226 220 217 217 232 238 241
78 50 248 170 249 267 353 137 133 162 246 187 190 169 159 160 235 117 19 40 56 107 101 110 118 128 145 172 203 221 227 233 213 226 260 285 233 220 233 225 219 228 245 251
200 191 239 232 250 263 279 132 155 232 57 182 193 184 167 172 347 145 129 90 86 105 142 134 127 122 123 126 128 129 146 170 150 243 237 244 247 241 232 223 216 220 224 232
215 198 218 188 237 256 156 154 228 46 47 129 167 184 161 140 134 128 124 110 101 101 111 133 145 149 149 158 174 177 177 169 101 134 145 203 195 173 148 250 228 204 214 218
231 227 244 223 289 173 235 252 252 316 206 164 130 136 140 146 136 129 121 110 98 97 115 127 148 157 168 127 130 130 121 160 155 159 175 187 185 193 179 161 77 30 115 248
200 178 226 262 197 248 257 257 241 204 202 161 151 145 141 144 137 130 125 116 108 105 104 104 114 120 117 116 132 131 138 162 177 153 140 160 184 186 185 170 180 165 204 210
80 163 186 249 263 267 250 232 193 165 155 142 137 142 144 143 138 131 124 119 111 109 107 113 118 114 106 105 104 98 107 157 166 142 138 154 151 166 157 148 161 192 203 218
188 178 187 252 210 188 163 152 113 125 136 152 144 143 138 138 137 136 129 118 111 113 111 109 106 107 104 107 107 107 111 107 110 112 112 110 109 112 106 103 114 119 123 112
Height
1520 1518 1521 1523 1522 1522 1524 1526 1536 1543 1541 1544 1547 1547 1544 1544 1547 1549 1550 1552 1554 1556 1561 1563 1566 1569 1573 1576 1579 1581 1585 1587 1589 1592 1595 1597 1600 1602 1603 1605 1607 1609 1610 1611
1521 1522 1521 1522 1524 1524 1524 1529 1536 1541 1540 1539 1544 1545 1540 1544 1545 1548 1549 1551 1551 1556 1559 1560 1564 1567 1571 1574 1578 1581 1584 1587 1589 1592 1595 1597 1600 1602 1604 1606 1608 1609 1611 1611
1519 1520 1521 1521 1523 1525 1526 1527 1533 1530 1537 1540 1538 1545 1541 1541 1544 1546 1547 1548 1549 1551 1554 1558 1560 1564 1568 1572 1575 1579 1583 1585 1589 1591 1594 1597 1599 1601 1603 1605 1608 1609 1611 1612
1518 1521 1520 1521 1522 1520 1526 1522 1526 1531 1532 1544 1537 1555 1537 1536 1540 1543 1543 1543 1546 1548 1552 1556 1559 1562 1565 1570 1573 1577 1581 1584 1588 1591 1594 1597 1599 1600 1603 1605 1607 1609 1610 1612
1520 1518 1520 1521 1518 1519 1522 1522 1526 1530 1531 1537 1543 1545 1529 1532 1539 1537 1537 1539 1540 1544 1548 1551 1554 1559 1563 1568 1571 1576 1579 1582 1586 1590 1593 1597 1599 1602 1603 1605 1607 1608 1610 1612
1516 1518 1517 1516 1519 1518 1525 1526 1530 1532 1535 1545 1541 1544 1531 1532 1526 1526 1532 1535 1536 1539 1544 1548 1553 1558 1561 1566 1569 1573 1577 1580 1584 1588 1591 1594 1598 1601 1603 1605 1606 1608 1610 1611
1516 1515 1516 1517 1520 1523 1522 1522 1542 1547 1548 1548 1534 1546 1523 1511 1514 1516 1521 1527 1530 1534 1540 1545 1549 1552 1557 1561 1566 1570 1574 1577 1581 1585 1589 1592 1596 1598 1601 1603 1606 1607 1608 1610
1522 1524 1514 1513 1514 1516 1520 1517 1526 1546 1554 1544 1533 1537 1513 1508 1507 1508 1511 1517 1525 1530 1535 1540 1544 1548 1553 1558 1563 1567 1571 1575 1578 1582 1586 1590 1593 1596 1599 1601 1603 1605 1606 1608
1521 1517 1510 1511 1512 1512 1523 1525 1515 1526 1533 1540 1528 1520 1507 1502 1501 1506 1507 1514 1518 1525 1530 1534 1540 1545 1549 1554 1558 1563 1567 1571 1575 1579 1583 1587 1590 1593 1596 1598 1601 1603 1604 1605
1520 1521 1508 1508 1510 1512 1511 1509 1524 1523 1541 1544 1532 1525 1509 1501 1494 1502 1504 1510 1514 1520 1526 1530 1535 1540 1545 1550 1555 1560 1564 1568 1572 1577 1580 1583 1586 1589 1592 1595 1597 1599 1601 1602
1519 1520 1509 1509 1508 1505 1511 1510 1512 1509 1516 1523 1530 1518 1508 1502 1500 1503 1505 1507 1512 1517 1521 1524 1529 1534 1541 1547 1551 1556 1561 1565 1569 1573 1577 1580 1583 1586 1588 1591 1594 1596 1597 1598
1520 1518 1517 1509 1508 1510 1507 1506 1506 1511 1519 1521 1517 1510 1506 1505 1503 1500 1505 1503 1506 1512 1516 1519 1525 1530 1535 1542 1547 1552 1557 1561 1565 1569 1572 1576 1579 1582 1585 1587 1590 1592 1594 1595
1518 1521 1520 1514 1509 1508 1508 1510 1511 1510 1509 1517 1518 1505 1505 1503 1503 1502 1502 1501 1501 1504 1509 1515 1521 1525 1530 1536 1542 1548 1552 1557 1561 1565 1568 1571 1574 1578 1581 1583 1586 1588 1589 1590
1518 1520 1520 1520 1517 1515 1511 1510 1511 1507 1511 1507 1506 1504 1507 1504 1505 1504 1504 1503 1501 1501 1505 1510 1514 1520 1524 1530 1537 1543 1548 1553 1558 1562 1565 1568 1570 1573 1576 1579 1582 1584 1585 1586
1518 1520 1522 1516 1516 1514 1513 1510 1508 1506 1510 1513 1513 1511 1505 1506 1507 1506 1505 1504 1502 1502 1504 1508 1513 1516 1520 1526 1532 1539 1545 1549 1554 1557 1561 1564 1567 1570 1572 1575 1577 1579 1581 1582
1521 1521 1523 1518 1514 1512 1513 1512 1509 1507 1509 1508 1511 1507 1505 1507 1509 1510 1508 1506 1504 1504 1505 1507 1511 1514 1519 1523 1528 1535 1542 1545 1550 1554 1558 1561 1564 1567 1568 1571 1573 1574 1577 1578
1519 1519 1522 1520 1519 1518 1519 1509 1510 1508 1509 1504 1505 1501 1504 1507 1509 1511 1510 1509 1506 1505 1505 1507 1508 1512 1518 1522 1526 1532 1538 1542 1545 1550 1553 1556 1560 1563 1565 1567 1569 1571 1573 1574
1520 1521 1523 1519 1521 1528 1510 1511 1511 1508 1506 1507 1504 1504 1507 1509 1511 1511 1510 1510 1508 1506 1506 1508 1510 1511 1515 1519 1523 1528 1532 1536 1540 1544 1548 1552 1554 1557 1560 1563 1566 1568 1569 1571
1521 1520 1520 1523 1521 1515 1509 1508 1510 1508 1503 1505 1504 1505 1507 1510 1512 1512 1512 1509 1508 1508 1507 1508 1509 1512 1516 1519 1522 1526 1530 1532 1537 1539 1543 1547 1549 1550 1553 1556 1561 1563 1565 1568
1522 1522 1518 1526 1524 1523 1504 1505 1507 1507 1507 1501 1505 1505 1507 1510 1511 1511 1511 1510 1509 1509 1509 1510 1511 1513 1516 1518 1521 1524 1527 1530 1534 1537 1540 1543 1545 1545 1548 1547 1550 1555 1559 1561
1518 1522 1520 1517 1518 1508 1505 1507 1508 1513 1507 1504 1506 1508 1510 1510 1513 1512 1511 1511 1511 1510 1511 1512 1514 1515 1517 1519 1522 1525 1529 1531 1533 1534 1539 1539 1542 1540 1544 1543 1546 1551 1554 1555
1515 1517 1518 1522 1519 1518 1507 1508 1509 1506 1506 1505 1507 1509 1509 1509 1513 1512 1512 1513 1511 1512 1513 1514 1515 1517 1521 1524 1525 1527 1530 1532 1534 1535 1538 1542 1541 1542 1545 1544 1543 1546 1548 1551
1519 1511 1512 1515 1507 1507 1506 1505 1504 1505 1506 1505 1505 1508 1509 1513 1513 1514 1515 1514 1514 1514 1515 1517 1518 1521 1523 1525 1526 1528 1530 1533 1536 1538 1540 1542 1544 1544 1544 1543 1545 1547 1550 1551
1511 1513 1510 1512 1505 1504 1504 1503 1502 1504 1505 1505 1506 1509 1511 1513 1514 1516 1517 1517 1515 1517 1519 1519 1520 1522 1523 1525 1527 1529 1531 1534 1535 1537 1538 1539 1542 1543 1543 1543 1546 1547 1549 1552
1506 1510 1507 1506 1502 1503 1502 1501 1500 1501 1502 1504 1506 1508 1511 1513 1515 1516 1518 1519 1516 1518 1521 1523 1524 1525 1526 1527 1529 1530 1532 1534 1535 1537 1538 1541 1541 1544 1542 1544 1548 1549 1550 1551
1501 1498 1499 1497 1495 1497 1498 1500 1499 1501 1503 1506 1506 1509 1511 1513 1516 1519 1521 1521 1519 1520 1523 1525 1525 1526 1527 1529 1529 1530 1533 1535 1536 1537 1539 1541 1543 1544 1544 1546 1547 1549 1550 1550